| time (UTC) | temp C | wind direction | speed KPH | gust KPH | rain 1hr cm | rain 24hr cm | rain mn cm | humidity % | barometer mb |
| 20260502163510 | 24 | 188 | 4.8 | 19.3 | 0.00 | 0.00 | 0.00 | 49 | 1014.9 |
| 20260502163023 | 24 | 123 | 3.2 | 8.0 | 0.00 | 0.00 | 0.00 | 47 | 1015.0 |
| 20260502162512 | 24 | 218 | 1.6 | 12.9 | 0.00 | 0.00 | 0.00 | 47 | 1015.1 |
| 20260502160512 | 24 | 296 | 3.2 | 11.3 | 0.00 | 0.00 | 0.00 | 48 | 1015.2 |
| 20260502152011 | 24 | 250 | 8.0 | 14.5 | 0.00 | 0.00 | 0.00 | 47 | 1015.7 |
| 20260502151530 | 24 | 151 | 8.0 | 14.5 | 0.00 | 0.00 | 0.00 | 47 | 1015.7 |
| 20260502151013 | 24 | 171 | 6.4 | 16.1 | 0.00 | 0.00 | 0.00 | 46 | 1015.9 |
| 20260502130503 | 24 | 194 | 6.4 | 17.7 | 0.00 | 0.00 | 0.00 | 48 | 1017.1 |
| 20260502122003 | 23 | 200 | 12.9 | 29.0 | 0.00 | 0.00 | 0.00 | 47 | 1017.5 |
| 20260502121004 | 24 | 212 | 9.7 | 20.9 | 0.00 | 0.00 | 0.00 | 48 | 1017.6 |
| 20260502120504 | 23 | 146 | 6.4 | 14.5 | 0.00 | 0.00 | 0.00 | 47 | 1017.6 |
| 20260502115504 | 23 | 200 | 6.4 | 17.7 | 0.00 | 0.00 | 0.00 | 49 | 1017.7 |
| 20260502115003 | 23 | 165 | 3.2 | 19.3 | 0.00 | 0.00 | 0.00 | 50 | 1017.8 |
| 20260502114508 | 23 | 207 | 8.0 | 19.3 | 0.00 | 0.00 | 0.00 | 49 | 1017.8 |
| 20260502114003 | 23 | 194 | 8.0 | 16.1 | 0.00 | 0.00 | 0.00 | 50 | 1018.0 |
| 20260502113503 | 23 | 190 | 6.4 | 20.9 | 0.00 | 0.00 | 0.00 | 49 | 1018.0 |
| 20260502112503 | 22 | 215 | 9.7 | 17.7 | 0.00 | 0.00 | 0.00 | 50 | 1018.2 |
| 20260502111504 | 22 | 250 | 6.4 | 16.1 | 0.00 | 0.00 | 0.00 | 52 | 1018.2 |
| 20260502110503 | 21 | 195 | 9.7 | 16.1 | 0.00 | 0.00 | 0.00 | 51 | 1018.2 |
| 20260502110008 | 21 | 200 | 6.4 | 14.5 | 0.00 | 0.00 | 0.00 | 51 | 1018.2 |
| 20260502105504 | 21 | 178 | 4.8 | 17.7 | 0.00 | 0.00 | 0.00 | 50 | 1018.2 |
| 20260502105003 | 21 | 230 | 8.0 | 17.7 | 0.00 | 0.00 | 0.00 | 51 | 1018.2 |
| 20260502104515 | 21 | 203 | 8.0 | 16.1 | 0.00 | 0.00 | 0.00 | 51 | 1018.3 |
| 20260502104003 | 21 | 170 | 6.4 | 16.1 | 0.00 | 0.00 | 0.00 | 51 | 1018.4 |
| 20260502103503 | 21 | 180 | 4.8 | 16.1 | 0.00 | 0.00 | 0.00 | 50 | 1018.4 |
| 20260502103011 | 21 | 177 | 9.7 | 16.1 | 0.00 | 0.00 | 0.00 | 49 | 1018.4 |
| 20260502102506 | 21 | 197 | 6.4 | 14.5 | 0.00 | 0.00 | 0.00 | 50 | 1018.5 |
| 20260502102006 | 21 | 202 | 8.0 | 20.9 | 0.00 | 0.00 | 0.00 | 49 | 1018.5 |
| 20260502101508 | 21 | 360 | 8.0 | 20.9 | 0.00 | 0.00 | 0.00 | 49 | 1018.6 |
| 20260502101002 | 21 | 185 | 6.4 | 17.7 | 0.00 | 0.00 | 0.00 | 47 | 1018.6 |
| 20260502100502 | 21 | 177 | 1.6 | 16.1 | 0.00 | 0.00 | 0.00 | 49 | 1018.6 |
| 20260502091511 | 21 | 153 | 6.4 | 17.7 | 0.00 | 0.00 | 0.00 | 44 | 1018.8 |
| 20260502091003 | 21 | 360 | 9.7 | 17.7 | 0.00 | 0.00 | 0.00 | 44 | 1018.9 |
| 20260502071514 | 16 | 207 | 3.2 | 11.3 | 0.00 | 0.00 | 0.00 | 51 | 1019.1 |
| 20260502071007 | 16 | 165 | 4.8 | 11.3 | 0.00 | 0.00 | 0.00 | 52 | 1019.2 |
| 20260502070508 | 16 | 202 | 1.6 | 12.9 | 0.00 | 0.00 | 0.00 | 53 | 1019.2 |
| 20260502070017 | 15 | 360 | 6.4 | 12.9 | 0.00 | 0.00 | 0.00 | 54 | 1019.1 |
| 20260502065507 | 15 | 144 | 3.2 | 11.3 | 0.00 | 0.00 | 0.00 | 54 | 1019.1 |
| 20260502065013 | 15 | 128 | 3.2 | 11.3 | 0.00 | 0.00 | 0.00 | 55 | 1019.2 |
| 20260502064519 | 15 | 101 | 4.8 | 11.3 | 0.00 | 0.00 | 0.00 | 55 | 1019.2 |
| 20260502064012 | 15 | 153 | 1.6 | 9.7 | 0.00 | 0.00 | 0.00 | 57 | 1019.3 |
| 20260502063017 | 14 | 168 | 8.0 | 16.1 | 0.00 | 0.00 | 0.00 | 58 | 1019.3 |
| 20260502062516 | 13 | 181 | 3.2 | 14.5 | 0.00 | 0.00 | 0.00 | 59 | 1019.3 |
| 20260502062006 | 13 | 227 | 3.2 | 17.7 | 0.00 | 0.00 | 0.00 | 60 | 1019.3 |
| 20260502061510 | 13 | 212 | 4.8 | 17.7 | 0.00 | 0.00 | 0.00 | 60 | 1019.3 |
| 20260502061005 | 13 | 227 | 4.8 | 12.9 | 0.00 | 0.00 | 0.00 | 61 | 1019.3 |
| 20260502060507 | 12 | 134 | 6.4 | 12.9 | 0.00 | 0.00 | 0.00 | 62 | 1019.2 |
| 20260502060018 | 12 | 150 | 1.6 | 8.0 | 0.00 | 0.00 | 0.00 | 63 | 1019.1 |
| 20260502055505 | 12 | 143 | 3.2 | 11.3 | 0.00 | 0.00 | 0.00 | 64 | 1019.1 |
| 20260502055010 | 11 | 129 | 4.8 | 11.3 | 0.00 | 0.00 | 0.00 | 65 | 1019.1 |
| 20260502054810 | 11 | 144 | 3.2 | 0.0 | 0.00 | 0.00 | 0.00 | 66 | 1019.1 |
| 20260502054802 | 11 | 148 | 0.0 | 0.0 | 0.00 | 0.00 | 0.00 | 60 | 1021.1 |
| 20260502054758 | 11 | 148 | 0.0 | 3.2 | 0.00 | 0.00 | 0.00 | 60 | 1021.2 |
| 20260502054754 | 11 | 148 | 0.0 | 3.2 | 0.00 | 0.00 | 0.00 | 59 | 1021.2 |
| 20260502054748 | 11 | 148 | 0.0 | 0.0 | 0.00 | 0.00 | 0.00 | 60 | 1021.2 |
| 20260502054745 | 11 | 148 | 0.0 | 3.2 | 0.00 | 0.00 | 0.00 | 59 | 1021.3 |
| 20260502054737 | 12 | 148 | 0.0 | 3.2 | 0.00 | 0.00 | 0.00 | 58 | 1021.4 |
| 20260502054735 | 12 | 148 | 0.0 | 3.2 | 0.00 | 0.00 | 0.00 | 58 | 1021.3 |
| 20260502054727 | 12 | 134 | 0.0 | 3.2 | 0.00 | 0.00 | 0.00 | 58 | 1021.3 |
| 20260502054722 | 12 | 136 | 0.0 | 3.2 | 0.00 | 0.00 | 0.00 | 57 | 1021.4 |
| 20260502054720 | 12 | 144 | 0.0 | 3.2 | 0.00 | 0.00 | 0.00 | 57 | 1021.4 |
| 20260502054717 | 12 | 134 | 0.0 | 3.2 | 0.00 | 0.00 | 0.00 | 58 | 1021.3 |
| 20260502054710 | 12 | 94 | 0.0 | 3.2 | 0.00 | 0.00 | 0.00 | 57 | 1021.4 |
| 20260502054705 | 12 | 136 | 0.0 | 3.2 | 0.00 | 0.00 | 0.00 | 57 | 1021.4 |
| 20260502054701 | 12 | 144 | 0.0 | 3.2 | 0.00 | 0.00 | 0.00 | 56 | 1021.4 |
| 20260502054655 | 12 | 147 | 0.0 | 3.2 | 0.00 | 0.00 | 0.00 | 56 | 1021.4 |
| 20260502054650 | 12 | 149 | 0.0 | 3.2 | 0.00 | 0.00 | 0.00 | 57 | 1021.4 |
| 20260502054648 | 12 | 155 | 0.0 | 3.2 | 0.00 | 0.00 | 0.00 | 56 | 1021.4 |
| 20260502054644 | 12 | 117 | 0.0 | 3.2 | 0.00 | 0.00 | 0.00 | 56 | 1021.5 |
| 20260502054637 | 13 | 105 | 0.0 | 3.2 | 0.00 | 0.00 | 0.00 | 56 | 1021.5 |
| 20260502054632 | 13 | 105 | 0.0 | 3.2 | 0.00 | 0.00 | 0.00 | 55 | 1021.5 |
| 20260502054628 | 13 | 105 | 0.0 | 3.2 | 0.00 | 0.00 | 0.00 | 55 | 1021.6 |
| 20260502054623 | 13 | 105 | 0.0 | 1.6 | 0.00 | 0.00 | 0.00 | 55 | 1021.6 |
| 20260502054616 | 13 | 105 | 0.0 | 3.2 | 0.00 | 0.00 | 0.00 | 55 | 1021.6 |
| 20260502054612 | 13 | 105 | 0.0 | 3.2 | 0.00 | 0.00 | 0.00 | 55 | 1021.6 |
| 20260502054608 | 13 | 102 | 0.0 | 3.2 | 0.00 | 0.00 | 0.00 | 55 | 1021.6 |
| 20260502054556 | 13 | 114 | 0.0 | 3.2 | 0.00 | 0.00 | 0.00 | 55 | 1021.7 |
| 20260502054550 | 13 | 114 | 0.0 | 3.2 | 0.00 | 0.00 | 0.00 | 54 | 1021.7 |
| 20260502054548 | 13 | 114 | 0.0 | 3.2 | 0.00 | 0.00 | 0.00 | 54 | 1021.7 |
| 20260502054539 | 13 | 109 | 0.0 | 3.2 | 0.00 | 0.00 | 0.00 | 54 | 1021.6 |
| 20260502054529 | 13 | 109 | 0.0 | 3.2 | 0.00 | 0.00 | 0.00 | 54 | 1021.7 |
| 20260502054454 | 13 | 109 | 0.0 | 0.0 | 0.00 | 0.00 | 0.00 | 54 | 1021.7 |
| 20260502054441 | 13 | 109 | 0.0 | 3.2 | 0.00 | 0.00 | 0.00 | 53 | 1021.7 |
| 20260502054430 | 14 | 109 | 0.0 | 3.2 | 0.00 | 0.00 | 0.00 | 54 | 1021.7 |
| 20260502054424 | 14 | 109 | 0.0 | 3.2 | 0.00 | 0.00 | 0.00 | 53 | 1021.7 |
| 20260502054404 | 14 | 109 | 0.0 | 0.0 | 0.00 | 0.00 | 0.00 | 51 | 1021.7 |
| 20260501235030 | 15 | 109 | 0.0 | 0.0 | 0.00 | 0.00 | 0.00 | 51 | 1021.8 |
| 20260501225648 | 15 | 109 | 0.0 | 0.0 | 0.00 | 0.00 | 0.00 | 50 | 1021.8 |
| 20260501221927 | 15 | 109 | 0.0 | 3.2 | 0.00 | 0.00 | 0.00 | 49 | 1021.8 |
| 20260501215822 | 15 | 109 | 0.0 | 3.2 | 0.00 | 0.00 | 0.00 | 49 | 1021.9 |
| 20260501213347 | 15 | 109 | 0.0 | 3.2 | 0.00 | 0.00 | 0.00 | 49 | 1021.9 |
| 20260501211128 | 15 | 109 | 0.0 | 3.2 | 0.00 | 0.00 | 0.00 | 48 | 1021.9 |
| 20260501210535 | 15 | 109 | 0.0 | 0.0 | 0.00 | 0.00 | 0.00 | 48 | 1021.9 |
| 20260501205357 | 16 | 109 | 0.0 | 0.0 | 0.00 | 0.00 | 0.00 | 47 | 1021.9 |
| 20260501204215 | 16 | 109 | 0.0 | 1.6 | 0.00 | 0.00 | 0.00 | 46 | 1022.0 |
| 20260501203408 | 16 | 109 | 0.0 | 3.2 | 0.00 | 0.00 | 0.00 | 46 | 1022.0 |
| 20260501202447 | 16 | 109 | 0.0 | 3.2 | 0.00 | 0.00 | 0.00 | 45 | 1022.0 |
| 20260501201635 | 16 | 109 | 0.0 | 1.6 | 0.00 | 0.00 | 0.00 | 45 | 1022.0 |
| 20260501200930 | 17 | 109 | 0.0 | 0.0 | 0.00 | 0.00 | 0.00 | 43 | 1022.0 |
| 20260501200558 | 17 | 109 | 0.0 | 3.2 | 0.00 | 0.00 | 0.00 | 42 | 1022.0 |
| 20260501195906 | 17 | 109 | 0.0 | 3.2 | 0.00 | 0.00 | 0.00 | 42 | 1022.0 |
| 20260501195315 | 17 | 109 | 0.0 | 3.2 | 0.00 | 0.00 | 0.00 | 41 | 1021.9 |
| 20260501194724 | 17 | 109 | 0.0 | 3.2 | 0.00 | 0.00 | 0.00 | 40 | 1021.9 |
| 20260501194130 | 18 | 157 | 0.0 | 3.2 | 0.00 | 0.00 | 0.00 | 40 | 1021.9 |
| 20260501193504 | 18 | 157 | 0.0 | 3.2 | 0.00 | 0.00 | 0.00 | 39 | 1021.8 |
| 20260501193025 | 18 | 160 | 0.0 | 3.2 | 0.00 | 0.00 | 0.00 | 37 | 1021.9 |
| 20260501192627 | 19 | 160 | 0.0 | 3.2 | 0.00 | 0.00 | 0.00 | 36 | 1021.8 |
| 20260501192152 | 19 | 153 | 1.6 | 4.8 | 0.00 | 0.00 | 0.00 | 36 | 1021.8 |
| 20260501191714 | 20 | 158 | 0.0 | 4.8 | 0.00 | 0.00 | 0.00 | 35 | 1021.8 |
| 20260501191008 | 20 | 159 | 1.6 | 4.8 | 0.00 | 0.00 | 0.00 | 34 | 1021.8 |
| 20260501190513 | 20 | 149 | 0.0 | 4.8 | 0.00 | 0.00 | 0.00 | 33 | 1021.7 |
| 20260501190029 | 20 | 162 | 1.6 | 4.8 | 0.00 | 0.00 | 0.00 | 33 | 1021.8 |
| 20260501185507 | 21 | 184 | 1.6 | 8.0 | 0.00 | 0.00 | 0.00 | 33 | 1021.7 |
| 20260501185008 | 21 | 163 | 1.6 | 8.0 | 0.00 | 0.00 | 0.00 | 33 | 1021.8 |
| 20260501184504 | 21 | 170 | 3.2 | 6.4 | 0.00 | 0.00 | 0.00 | 32 | 1021.8 |
| 20260501184009 | 21 | 179 | 1.6 | 6.4 | 0.00 | 0.00 | 0.00 | 32 | 1021.7 |
| 20260501183511 | 21 | 196 | 1.6 | 6.4 | 0.00 | 0.00 | 0.00 | 31 | 1021.8 |
| 20260501183017 | 21 | 148 | 1.6 | 8.0 | 0.00 | 0.00 | 0.00 | 30 | 1021.8 |
| 20260501182507 | 22 | 187 | 1.6 | 8.0 | 0.00 | 0.00 | 0.00 | 30 | 1021.8 |
| 20260501182007 | 22 | 184 | 1.6 | 6.4 | 0.00 | 0.00 | 0.00 | 29 | 1021.7 |
| 20260501181525 | 22 | 159 | 1.6 | 11.3 | 0.00 | 0.00 | 0.00 | 29 | 1021.7 |
| 20260501181009 | 22 | 153 | 1.6 | 11.3 | 0.00 | 0.00 | 0.00 | 28 | 1021.7 |
| 20260501174513 | 23 | 138 | 4.8 | 14.5 | 0.00 | 0.00 | 0.00 | 27 | 1021.6 |
| 20260501174006 | 23 | 113 | 6.4 | 12.9 | 0.00 | 0.00 | 0.00 | 26 | 1021.6 |
| 20260501173010 | 23 | 148 | 4.8 | 16.1 | 0.00 | 0.00 | 0.00 | 26 | 1021.6 |
| 20260501171506 | 24 | 138 | 8.0 | 16.1 | 0.00 | 0.00 | 0.00 | 24 | 1021.6 |
| 20260501171010 | 24 | 132 | 4.8 | 17.7 | 0.00 | 0.00 | 0.00 | 25 | 1021.6 |
| 20260501170509 | 24 | 151 | 6.4 | 17.7 | 0.00 | 0.00 | 0.00 | 25 | 1021.6 |
| 20260501170024 | 24 | 161 | 6.4 | 20.9 | 0.00 | 0.00 | 0.00 | 25 | 1021.6 |
| 20260501165506 | 24 | 172 | 8.0 | 20.9 | 0.00 | 0.00 | 0.00 | 24 | 1021.6 |
| 20260501165009 | 25 | 149 | 6.4 | 17.7 | 0.00 | 0.00 | 0.00 | 24 | 1021.6 |